Theta_e
323 321 321 321 322 322 323 326 332 335 333 336 338 336 336 332 332 333 333 334 334 338 338 335 336 334 333 337 338 337 336 339 343 338 339 338 328 332 336 335 337 337 339 339 338 336 333 334 335 337 338 337 336 336 337 336 336 335 336 337 338 338 338 338 337 336 336 336 336 335 334 334 334 334 334 335 335 335 335 337 338 338 339 339 339 339 340 340 339 339 337 336 335 335 334 334 334
322 322 321 322 322 323 328 330 336 336 333 335 337 336 335 331 330 331 333 334 338 344 342 336 334 335 336 339 335 330 331 331 335 337 334 331 329 331 331 335 336 336 339 339 338 336 334 334 334 337 339 338 337 335 336 336 336 334 334 335 335 336 336 336 335 336 335 335 335 335 334 335 334 334 334 335 334 334 336 337 338 338 339 339 339 339 339 339 339 338 337 336 335 334 334 333 333
322 323 322 323 324 323 330 331 335 336 335 337 336 335 332 331 331 331 334 338 345 345 337 330 329 332 332 333 327 325 331 330 331 337 333 329 332 329 328 333 333 335 338 338 339 337 335 333 334 337 338 339 337 336 335 336 335 334 334 335 335 335 335 335 335 336 335 335 335 335 335 335 334 334 334 335 334 334 336 337 338 338 338 339 339 339 339 339 338 338 336 335 334 334 333 333 333
322 322 322 323 324 325 331 332 336 337 335 337 336 335 334 333 332 334 341 345 346 337 328 325 325 326 327 329 326 325 329 328 329 335 334 330 331 328 328 331 332 334 336 338 339 337 335 334 334 336 338 339 338 337 336 335 335 334 335 336 336 335 335 336 336 336 335 335 334 334 334 334 334 334 334 334 334 335 336 337 338 338 338 339 339 339 339 339 339 338 336 335 334 334 332 332 332
321 322 321 323 326 328 330 330 334 335 333 336 337 337 338 339 336 339 342 340 339 332 327 325 326 325 324 325 326 327 326 325 327 330 332 329 328 327 329 330 331 333 336 338 338 337 336 333 334 335 337 339 338 338 337 336 335 335 336 336 337 336 336 336 336 336 335 334 334 334 334 333 333 333 334 333 334 334 335 336 338 338 338 339 339 339 339 339 338 338 336 334 334 333 332 331 328
320 321 320 320 323 326 328 329 332 332 331 332 334 338 340 340 340 341 337 331 332 331 328 325 325 325 323 322 322 327 325 323 326 328 328 328 327 326 328 329 332 333 335 338 338 337 336 334 334 335 337 338 339 338 338 337 336 336 336 337 337 336 335 335 335 335 334 333 332 332 332 333 333 333 333 333 333 333 334 336 337 338 338 339 339 339 339 339 337 337 336 334 333 332 332 328 323
320 321 322 322 323 325 329 331 333 331 330 329 328 333 336 338 338 336 332 327 326 326 325 325 325 324 324 321 321 324 323 323 324 327 327 326 327 326 327 329 332 334 335 337 338 337 336 335 333 334 336 338 339 339 339 338 337 337 337 337 337 336 335 335 334 334 333 331 330 329 330 331 332 333 333 332 333 333 334 336 337 338 338 339 339 338 339 338 335 336 335 333 332 331 330 324 319
320 323 326 329 329 327 329 330 331 331 330 330 326 326 330 336 335 331 330 327 325 324 324 327 325 324 327 322 323 324 322 324 323 325 326 325 327 326 328 331 333 333 335 337 337 337 336 335 334 334 335 338 339 339 340 339 339 338 337 337 337 336 335 334 333 332 331 330 328 328 329 330 331 332 333 332 332 333 333 335 336 337 338 338 338 338 338 337 335 335 334 333 331 330 327 320 317
320 322 324 329 330 328 329 330 330 328 328 328 325 324 327 331 331 328 329 327 326 325 324 329 326 324 330 325 324 324 323 326 324 324 325 325 326 327 330 332 333 333 334 336 337 337 336 335 334 334 335 337 338 339 340 339 339 339 338 337 336 335 334 334 333 331 330 329 328 329 330 331 331 331 333 333 332 332 333 334 335 337 337 338 338 338 338 336 335 334 334 332 330 329 324 317 315
321 322 325 328 329 328 329 331 330 327 326 325 324 324 325 327 326 325 328 326 326 327 324 326 325 324 329 326 325 323 323 325 325 326 325 325 325 328 332 332 333 333 334 336 337 337 336 336 335 334 334 336 338 339 340 339 339 338 337 336 335 334 334 333 332 331 329 328 328 329 330 331 332 332 333 332 332 332 333 333 335 336 337 338 338 337 337 336 334 333 334 331 329 327 320 314 314
325 324 324 328 328 329 330 330 331 329 325 323 324 324 323 324 323 324 327 326 325 325 324 323 323 326 324 326 329 324 322 325 324 325 325 324 324 328 331 332 334 333 334 335 337 337 337 337 336 335 335 336 338 339 339 339 339 337 336 335 335 334 334 333 332 330 328 327 328 329 330 330 331 332 332 331 330 331 333 333 334 336 337 337 337 337 337 335 334 333 333 330 328 323 315 313 314
329 327 326 329 330 330 330 329 332 329 327 325 325 326 323 322 323 324 325 326 326 323 323 323 322 326 323 326 329 322 321 324 323 322 323 324 323 327 330 332 333 334 335 335 336 337 337 337 336 336 336 336 338 339 339 339 338 337 335 334 335 335 334 334 332 330 328 328 328 329 329 330 330 331 332 331 329 330 332 333 334 336 336 336 337 337 336 334 334 333 332 330 328 323 314 314 314
329 331 329 330 331 332 329 330 334 331 330 328 324 326 324 322 322 325 327 327 327 322 322 324 322 321 322 326 326 324 324 322 321 321 322 324 325 327 329 332 332 332 333 333 334 335 336 336 337 337 336 337 337 338 339 339 338 337 336 335 335 335 334 333 332 331 330 329 328 328 329 330 330 330 331 330 329 329 330 333 335 336 336 336 337 336 335 334 333 332 330 329 329 325 317 313 313
327 332 332 330 330 333 331 331 334 331 330 327 322 324 323 321 320 324 326 324 326 323 321 322 321 319 321 326 328 330 327 319 319 321 322 326 327 327 328 330 331 331 331 331 332 332 333 334 335 336 337 337 337 338 338 338 337 336 336 335 335 334 333 332 332 331 331 330 330 329 329 329 329 329 329 329 328 328 330 332 334 335 335 335 336 335 334 333 332 330 329 328 328 327 322 314 313
326 332 330 329 330 331 332 332 332 330 329 325 322 322 321 321 319 321 321 319 324 323 319 318 318 320 322 325 330 330 323 318 319 321 324 327 327 329 328 328 329 329 329 328 329 330 330 330 332 334 336 337 338 338 338 338 337 336 335 334 334 333 333 332 332 331 330 331 330 329 329 329 327 326 327 327 327 329 330 332 334 335 335 335 335 334 333 332 331 329 328 328 327 326 323 316 313
328 334 329 329 331 331 331 330 329 328 329 326 323 322 323 323 320 319 319 317 320 319 318 318 317 319 322 324 327 325 319 318 319 322 326 327 327 329 329 328 328 328 328 327 328 329 330 330 330 332 335 336 337 337 337 337 336 335 334 333 333 332 331 331 331 331 330 330 329 329 329 328 326 326 327 326 328 330 331 333 334 334 334 335 334 334 332 330 329 328 327 327 325 322 320 316 313
332 334 329 329 331 330 329 329 330 331 331 330 326 322 323 324 321 318 318 318 318 318 318 318 317 317 319 320 320 320 320 319 320 324 327 328 327 328 328 328 328 327 327 327 327 329 330 330 330 330 332 334 335 336 336 336 335 335 334 334 333 332 331 329 329 329 330 330 328 327 326 326 327 327 327 327 328 330 331 333 334 334 334 334 333 332 331 329 328 327 327 326 322 319 318 315 313
332 330 329 329 328 329 330 329 330 329 329 331 328 322 322 324 323 319 319 321 319 319 319 318 318 316 315 316 317 319 320 320 321 324 327 327 327 326 326 326 327 327 327 327 327 328 330 330 330 330 331 332 334 335 335 335 335 334 333 333 333 332 331 329 327 326 327 328 326 323 322 325 329 329 327 327 329 330 331 332 333 334 334 333 332 331 330 329 328 326 326 324 318 317 316 314 314
329 330 330 328 327 329 328 327 327 326 328 331 328 323 322 321 321 319 320 324 321 321 322 319 318 316 315 315 317 319 319 320 322 324 326 325 325 325 324 324 324 324 326 327 326 326 328 330 331 331 331 332 333 334 335 334 334 334 334 333 333 333 332 330 328 327 326 327 325 322 320 324 329 329 327 328 329 331 332 333 333 333 333 332 331 330 329 328 327 326 325 322 317 316 316 314 314
327 329 330 328 328 328 326 325 326 328 329 327 325 324 323 321 320 319 321 324 322 320 322 322 320 319 318 316 316 318 319 320 322 323 324 324 324 324 324 323 323 322 322 323 324 326 326 328 330 331 331 331 332 333 334 334 333 333 334 334 333 333 332 331 330 330 329 328 327 324 323 326 330 330 329 329 329 331 333 333 333 333 332 331 330 329 327 327 326 325 324 320 316 316 316 315 314
327 327 329 330 328 327 327 326 327 328 327 324 324 324 323 323 321 320 321 323 322 322 324 323 321 320 319 317 316 317 318 318 320 320 321 322 323 324 323 322 321 321 320 321 323 325 326 327 328 330 331 331 331 332 333 333 333 332 333 333 333 333 333 333 332 331 331 331 329 328 327 328 330 330 329 329 328 330 332 332 332 331 331 330 329 328 326 326 325 324 323 318 316 316 316 315 315
327 327 328 330 326 326 327 327 329 327 324 324 324 322 323 323 321 323 323 322 323 324 324 324 324 323 321 319 319 318 317 316 317 317 317 318 319 321 322 322 321 321 321 321 322 323 324 326 326 328 330 331 331 332 332 332 332 332 332 332 332 333 333 332 332 332 331 331 331 330 330 330 330 330 330 329 329 329 329 330 331 330 330 329 328 327 325 325 324 323 321 317 316 316 316 315 315
327 328 327 328 326 325 325 325 327 325 323 322 323 323 324 323 323 324 323 322 322 322 323 324 324 323 321 320 320 320 319 317 316 315 316 316 316 318 319 321 321 322 322 322 321 321 322 324 325 326 329 331 331 332 332 332 332 331 331 332 332 332 332 333 333 332 331 331 331 331 331 331 331 330 330 329 330 330 329 329 330 329 329 328 327 326 325 324 323 321 318 316 316 316 316 316 315
326 328 327 326 325 324 323 323 324 324 323 323 322 322 322 324 324 322 322 321 320 321 320 320 319 318 318 320 321 322 320 318 317 316 317 316 316 317 316 316 317 319 322 323 324 323 323 323 324 325 328 330 331 332 332 332 332 332 331 332 332 332 332 332 332 332 331 330 330 330 330 331 331 330 330 330 330 330 329 329 329 328 328 327 327 326 325 323 321 319 317 316 317 317 316 316 316
325 327 327 326 325 325 325 324 324 325 325 322 320 321 322 323 321 318 319 318 317 318 317 317 316 317 317 319 320 320 320 318 316 317 317 315 314 314 313 311 312 315 317 320 323 324 325 325 325 325 326 328 330 331 331 331 331 332 332 332 331 331 331 330 331 331 331 330 329 329 329 330 331 330 330 330 330 329 329 329 328 328 327 327 326 325 324 321 318 318 317 317 317 317 317 316 316
325 325 326 325 324 324 324 322 323 326 326 322 320 321 322 319 317 317 318 317 316 315 315 316 316 317 317 316 316 315 316 312 307 309 309 307 307 307 306 306 308 310 310 314 318 321 323 325 326 326 326 327 329 330 330 330 331 331 331 331 331 331 330 330 330 331 330 330 330 329 328 329 330 329 330 330 329 329 328 328 328 327 327 326 326 324 323 319 317 318 317 317 318 318 318 317 317
321 320 320 321 319 317 316 317 319 320 321 320 318 318 317 315 315 316 318 318 316 315 316 316 316 316 315 314 312 307 306 302 299 300 300 300 300 300 300 302 304 305 307 310 313 315 319 322 324 326 326 326 328 329 330 329 330 330 330 330 330 330 330 330 330 330 330 330 330 329 328 328 328 328 329 329 329 328 328 328 327 326 326 326 325 324 322 318 316 317 318 317 317 318 319 318 317
314 314 315 316 315 313 313 314 315 313 314 317 315 313 312 314 317 316 315 315 315 317 318 317 316 315 313 311 307 300 298 297 296 296 296 296 297 296 297 298 299 302 304 306 307 310 314 317 320 323 324 326 327 328 328 328 328 329 330 330 330 329 329 330 330 330 330 329 329 328 327 327 327 327 327 328 328 328 328 328 327 326 326 325 324 323 321 317 315 316 317 316 316 317 317 318 317
312 313 313 316 315 313 312 312 313 312 313 314 312 312 312 313 317 315 314 313 313 316 317 316 315 314 312 308 302 297 296 295 295 294 294 294 295 295 295 295 297 299 301 303 305 307 310 312 314 317 319 322 325 326 326 326 326 327 328 329 329 329 329 330 330 329 329 329 328 327 326 324 324 325 326 327 328 327 327 327 326 325 325 325 324 323 320 318 317 316 315 315 315 315 316 318 317
313 313 313 315 315 314 314 312 313 312 311 311 311 314 315 313 314 313 312 313 313 315 315 315 314 312 309 304 298 296 295 294 294 293 293 293 293 294 295 296 297 298 300 303 305 306 306 308 310 312 314 316 319 323 324 325 325 325 325 326 327 329 329 329 329 329 328 328 327 326 324 322 322 324 326 327 327 326 326 326 325 325 325 325 323 322 320 319 318 316 315 315 315 315 316 317 316
315 314 315 314 314 316 316 314 313 312 312 311 312 314 314 313 313 312 310 310 312 315 315 313 313 310 305 300 297 295 294 293 293 292 292 292 293 294 294 296 297 298 300 302 304 305 305 306 308 310 312 313 314 317 320 322 323 323 324 324 324 326 328 328 328 328 328 327 326 325 323 321 321 323 325 326 326 325 325 325 325 325 325 324 323 322 321 320 319 317 316 316 316 317 317 316 315
317 315 316 315 315 315 314 313 312 312 313 311 311 314 314 311 312 312 310 308 311 313 313 313 312 308 304 299 296 294 293 292 291 291 292 292 292 293 294 295 296 298 299 301 303 304 305 306 307 309 310 312 312 314 317 319 321 322 322 323 324 324 326 327 327 327 327 326 326 325 322 321 320 322 324 325 325 325 325 325 325 325 325 324 323 322 321 321 319 317 316 316 317 317 316 315 314
317 314 315 315 314 313 313 313 312 310 312 310 309 313 313 312 314 315 311 308 309 310 311 313 311 308 305 299 295 294 293 292 291 290 291 291 292 292 293 294 296 297 298 300 301 303 305 306 306 307 309 310 311 312 314 317 320 320 320 321 323 323 323 325 325 324 325 324 325 325 323 321 320 321 322 323 323 323 324 324 324 324 324 323 321 322 321 321 320 318 316 316 317 317 316 314 313
317 314 314 314 313 312 312 313 312 309 309 309 309 310 310 311 313 314 312 309 308 308 309 310 309 310 307 299 295 293 293 292 291 290 290 290 291 292 293 294 295 297 298 299 300 301 303 305 306 306 307 308 310 311 313 317 319 320 320 321 322 321 320 322 323 322 322 322 323 323 322 321 321 320 320 321 321 319 320 322 323 322 322 321 319 319 319 319 318 317 317 316 317 317 316 314 312
319 316 314 314 312 311 311 311 311 309 309 310 309 308 308 308 308 308 309 309 308 308 309 308 308 310 305 298 295 293 291 291 290 289 289 289 290 291 292 293 295 296 297 298 299 300 302 303 305 306 306 307 309 311 314 317 319 320 320 321 322 320 318 320 322 321 320 320 320 320 320 319 320 320 320 321 321 318 316 318 321 321 320 318 317 315 315 317 316 315 316 316 315 316 316 315 312
316 315 312 313 311 310 310 309 310 308 308 310 309 308 307 307 306 306 307 307 307 307 308 308 310 308 301 296 294 292 291 290 289 289 288 288 289 289 290 292 293 294 296 297 298 299 300 302 304 305 306 307 308 310 313 316 318 319 319 319 320 319 318 318 319 319 319 318 317 317 317 316 316 317 319 319 319 318 316 315 316 319 319 316 315 314 313 316 316 314 315 315 314 312 311 312 311
311 311 311 312 311 311 309 308 310 309 308 310 309 308 307 306 306 305 305 306 306 307 307 308 310 306 300 297 294 291 290 289 288 288 287 287 288 288 289 290 291 292 293 295 296 297 298 300 302 303 305 306 308 309 312 314 315 316 317 317 317 317 316 316 316 317 316 315 314 314 314 314 313 313 315 315 315 315 315 315 313 314 315 314 315 316 314 315 315 314 313 312 312 310 306 306 308
312 312 312 311 311 310 308 307 309 309 308 310 309 308 306 305 305 304 305 305 305 306 307 308 308 304 298 296 293 291 290 289 288 287 286 287 287 287 288 288 289 289 290 292 293 293 295 297 299 301 303 305 306 307 309 311 311 312 313 314 314 313 313 313 313 312 312 312 311 310 310 311 311 310 311 312 313 312 312 314 314 313 312 311 314 314 311 311 312 312 312 309 308 308 306 305 305
312 312 311 311 310 308 308 307 308 308 307 307 308 307 305 305 305 305 305 305 306 307 307 307 307 303 297 295 292 290 289 288 287 287 286 286 285 286 286 286 286 287 288 289 291 292 293 294 296 298 301 303 304 305 306 307 309 310 311 311 311 310 309 308 308 308 308 309 308 307 307 307 308 307 308 309 310 310 309 310 311 312 311 309 312 312 308 307 307 309 311 311 307 305 304 304 304
311 311 311 311 309 308 309 309 309 309 308 307 307 306 305 305 305 305 304 305 305 304 302 302 301 300 296 293 291 289 289 288 287 286 285 285 284 284 284 284 285 286 286 287 288 289 290 291 293 295 298 301 303 304 304 305 306 308 309 308 308 307 305 305 306 305 305 305 305 304 304 304 304 304 304 305 306 307 308 307 307 307 308 308 308 309 307 306 305 305 307 309 307 303 300 300 302
310 310 310 310 309 309 309 309 308 308 307 307 307 306 306 306 305 305 304 303 303 300 299 298 295 294 293 291 290 289 288 287 286 286 285 284 283 283 283 283 283 284 284 285 286 287 287 288 290 292 295 298 300 302 303 304 305 306 306 306 305 304 304 304 304 303 302 302 301 301 301 301 301 301 301 302 303 304 305 305 304 304 304 305 305 305 306 305 304 304 304 307 306 304 301 298 299
310 310 310 309 309 309 308 307 306 307 307 307 307 308 308 307 306 306 304 304 303 298 299 299 293 292 291 290 289 288 287 287 286 285 284 283 283 282 282 282 282 282 282 283 284 286 288 289 290 291 294 296 298 300 302 302 303 304 304 303 302 300 299 299 298 299 299 299 298 298 297 297 297 297 298 299 300 301 302 302 303 302 302 302 302 303 304 303 303 302 302 304 306 307 304 299 298
310 310 312 311 309 308 308 308 308 309 309 307 306 308 308 307 307 307 308 308 305 299 298 297 292 291 291 289 288 287 286 286 285 284 283 282 282 281 281 280 281 281 281 282 283 285 287 289 289 290 292 293 295 297 299 301 301 300 300 298 297 296 295 294 294 295 296 295 295 296 296 295 294 294 295 295 297 298 298 299 301 301 301 301 301 301 301 301 302 302 299 300 301 302 303 300 297
310 310 313 313 310 310 309 309 309 309 308 307 306 307 308 307 306 308 310 310 307 301 298 295 291 291 290 288 287 287 286 285 284 283 282 282 281 280 280 279 279 280 280 281 282 283 285 287 288 288 289 290 292 294 296 297 298 296 295 294 293 293 293 292 292 292 293 293 294 293 293 293 293 292 292 292 293 295 295 296 297 298 299 299 299 300 300 300 300 300 298 297 298 297 298 298 296
312 311 310 311 310 310 309 309 309 308 307 308 307 306 308 308 305 306 308 307 306 303 300 295 292 290 289 288 287 286 285 284 283 282 281 281 280 280 279 279 279 279 280 280 280 282 284 285 286 286 287 287 288 290 292 293 294 293 292 291 290 290 290 290 291 290 291 291 291 290 290 291 291 291 291 291 291 292 293 293 294 295 295 295 296 296 297 297 297 297 297 296 296 296 295 296 295
311 310 309 311 310 308 309 308 308 308 308 308 307 306 307 308 305 304 306 306 305 305 301 295 291 290 288 287 286 285 284 283 282 281 280 280 279 279 278 278 278 278 279 279 280 282 283 283 284 285 284 284 285 287 289 290 291 291 290 289 288 288 288 289 289 289 288 289 289 288 288 288 289 289 290 290 289 289 290 291 291 292 292 292 292 292 293 293 293 294 294 294 294 294 293 293 293
307 307 309 311 309 306 307 307 307 308 307 307 307 306 307 307 306 305 306 306 305 305 303 296 291 289 288 286 285 284 283 282 281 280 280 279 279 278 278 278 278 278 278 279 280 281 281 281 282 282 282 282 283 284 285 286 287 288 287 286 286 286 286 287 286 286 286 287 286 286 286 286 287 288 288 289 289 288 288 289 289 289 289 290 290 291 290 290 290 290 290 290 291 292 291 291 291
306 309 309 309 307 306 307 307 307 307 306 306 307 307 306 306 306 304 305 308 308 306 303 297 291 289 287 286 285 283 283 282 281 280 280 279 278 278 278 277 277 277 277 278 278 279 279 280 280 280 280 280 281 282 283 283 284 284 284 284 284 284 284 284 283 283 283 283 283 283 284 284 285 286 287 287 287 288 288 288 289 288 288 289 289 289 289 289 289 289 288 288 288 289 289 289 289
306 309 308 308 308 308 308 307 307 306 305 304 306 306 305 305 304 304 307 309 305 300 299 296 291 289 287 285 284 283 282 281 281 280 279 279 278 278 277 277 277 276 276 276 277 277 278 278 278 278 278 278 279 280 280 281 281 281 281 281 282 282 282 281 281 280 280 280 280 280 281 281 282 283 284 285 285 286 287 287 288 288 288 288 289 289 289 289 289 289 288 288 288 287 287 287 288
306 307 308 308 308 308 308 306 305 305 304 303 303 304 305 305 304 303 302 300 294 292 294 294 291 288 286 284 283 282 282 281 280 280 279 278 278 277 277 276 276 276 276 276 276 276 276 276 277 277 276 277 278 278 279 279 279 279 279 279 280 280 280 280 279 279 278 278 278 278 278 278 279 280 280 282 283 284 285 286 286 286 286 287 287 288 288 289 289 289 289 289 289 289 288 288 288
306 306 307 307 308 309 307 306 306 306 306 305 303 303 307 308 303 296 292 290 288 289 290 290 288 286 284 283 282 282 281 280 280 279 278 278 278 277 277 276 276 275 275 275 275 275 275 275 275 275 275 276 277 277 277 277 277 278 279 279 279 279 279 278 278 277 277 277 277 277 277 277 277 278 279 280 282 283 284 284 285 285 285 286 286 287 287 287 288 288 289 289 289 289 289 289 288
306 305 307 306 306 306 305 305 306 305 305 304 302 305 308 305 296 290 290 289 288 288 287 287 286 284 283 283 282 281 281 280 279 279 278 278 277 277 276 276 275 275 275 274 274 274 274 274 274 274 274 274 275 275 276 276 276 277 277 277 278 278 278 278 277 277 277 277 277 277 277 277 277 278 278 280 281 282 283 283 284 284 284 285 285 285 286 286 286 286 287 287 287 288 288 288 288
306 305 307 306 305 303 305 305 304 304 305 305 304 305 305 303 297 292 291 291 289 287 287 286 285 284 283 283 282 281 280 280 279 278 278 277 277 276 276 275 275 274 274 274 274 274 273 273 273 273 273 273 273 274 274 274 275 275 275 275 276 276 276 276 275 275 276 276 276 276 276 277 277 277 278 279 279 280 281 282 282 283 283 284 284 285 285 285 285 285 285 285 286 286 286 287 287
307 306 306 306 305 304 305 305 305 306 307 307 306 305 305 305 302 295 292 293 291 288 287 286 285 284 284 283 282 281 280 279 279 278 278 277 277 276 275 275 274 274 274 273 273 273 273 273 273 272 272 272 272 272 272 272 273 273 273 273 274 274 273 273 273 273 274 274 275 275 275 275 276 276 277 277 278 279 279 280 281 281 281 282 283 283 284 284 284 284 284 285 285 285 285 285 285
305 306 306 306 307 306 305 307 307 307 308 306 306 306 305 304 304 301 299 297 292 288 287 286 285 285 284 282 281 281 280 279 278 278 277 277 276 276 275 275 274 274 273 273 273 273 272 272 272 272 272 271 271 271 271 271 271 271 271 271 272 272 272 272 272 272 272 272 272 272 273 273 273 274 275 275 276 277 277 278 279 279 279 280 281 282 282 283 283 283 283 284 284 284 285 285 285
303 304 304 305 306 305 305 306 307 307 307 306 306 306 304 304 305 305 305 300 294 290 288 286 286 285 284 282 281 280 280 279 278 277 277 277 276 275 275 274 274 274 273 273 273 272 272 272 272 271 271 271 271 270 270 270 270 270 270 270 270 271 271 271 271 272 271 271 271 271 271 271 272 272 273 273 274 274 275 276 276 277 277 278 279 280 280 281 281 281 281 282 282 283 283 283 284
305 305 304 305 306 305 304 305 305 305 305 306 306 305 304 303 303 304 304 302 296 291 290 288 286 285 284 282 281 280 280 279 278 277 277 276 276 275 275 274 274 273 273 273 273 272 272 272 271 271 271 271 270 270 270 270 270 270 270 270 270 270 270 270 271 271 270 270 270 270 270 270 271 271 271 271 271 272 272 273 274 275 275 275 276 277 278 279 279 279 280 280 281 281 282 282 282
305 305 303 304 305 304 304 304 305 305 305 305 305 305 304 300 297 297 298 297 294 292 291 289 287 285 283 282 281 280 280 279 278 277 276 276 276 275 275 274 274 273 273 273 273 272 272 272 271 271 271 270 270 270 269 269 269 269 269 269 269 269 269 270 270 269 269 269 269 269 269 269 269 269 269 269 270 270 270 271 271 272 273 273 273 274 275 276 276 277 278 278 279 279 280 280 280
Wind_Speed
6 5 3 2 2 1 2 1 2 2 2 1 2 1 3 5 3 3 5 5 1 3 3 2 2 3 2 3 5 5 4 4 4 4 4 4 5 10 9 5 5 6 8 9 11 14 18 20 21 22 21 20 20 20 19 18 17 17 18 18 17 17 16 15 15 14 14 13 13 13 13 13 13 13 12 12 12 12 13 13 14 15 15 16 16 16 15 15 15 14 14 14 14 15 15 15 16
7 5 3 1 0 2 1 2 2 1 3 1 3 3 4 1 2 5 7 6 4 4 2 3 2 3 3 3 4 1 2 4 3 3 2 2 6 8 8 8 6 6 8 9 11 13 17 21 21 22 22 21 21 20 20 19 18 17 18 17 17 16 16 15 14 13 13 13 13 13 13 13 13 13 13 12 13 14 14 14 14 15 15 16 16 16 16 16 16 15 15 14 14 15 15 15 17
5 3 2 1 1 2 1 2 2 2 3 3 4 4 3 2 6 9 8 7 7 5 2 1 1 3 4 4 1 1 3 3 2 1 1 4 5 5 9 11 9 7 9 10 11 13 17 20 22 23 23 22 21 21 21 20 19 19 19 17 16 15 15 15 14 13 13 13 12 12 13 13 13 12 13 13 14 15 14 14 14 15 15 16 16 16 16 17 17 16 15 14 15 15 15 15 17
6 4 4 3 2 2 3 2 2 4 3 3 3 5 3 4 9 8 7 7 6 4 2 1 1 0 3 2 1 2 2 3 2 2 3 6 7 7 10 11 11 8 9 11 12 13 15 19 22 23 24 23 22 21 21 21 20 20 20 18 17 16 15 15 14 13 13 13 12 12 12 12 12 12 12 13 14 15 15 15 14 15 16 16 17 16 17 17 17 18 17 16 16 15 17 16 18
6 4 4 2 2 0 2 1 2 4 4 4 2 5 4 6 7 6 5 4 4 3 2 2 1 3 1 0 1 2 2 1 2 3 5 8 9 10 9 10 11 9 10 13 13 13 13 17 21 24 24 23 23 22 22 22 21 21 21 20 19 17 16 15 14 13 14 13 13 13 13 12 12 12 13 13 14 16 16 16 15 15 16 17 17 17 17 17 17 18 18 18 17 17 18 18 20
4 1 2 0 1 1 2 1 2 2 4 4 2 5 5 5 6 6 5 4 3 2 2 2 2 0 1 2 1 2 2 1 1 4 6 8 10 9 7 8 10 9 10 13 14 13 12 15 19 23 24 23 23 22 22 22 21 22 22 21 20 19 17 17 16 15 15 14 14 14 14 12 12 13 14 14 14 15 17 17 15 15 17 17 18 18 19 19 20 20 20 20 19 19 19 19 22
1 1 1 1 1 1 2 2 3 3 4 5 4 5 5 5 5 5 3 3 1 1 1 3 3 3 1 2 1 1 2 2 2 3 5 6 9 7 6 8 11 10 10 13 15 13 11 13 16 21 24 24 23 22 21 21 22 22 22 22 21 20 19 18 17 16 16 15 14 15 15 13 13 13 14 15 14 15 17 17 16 15 17 18 18 19 19 21 22 22 22 22 22 21 19 21 23
1 1 1 3 1 2 2 2 3 3 4 4 4 4 5 7 6 4 4 3 2 2 2 3 4 4 4 1 2 2 4 3 2 4 6 6 7 6 8 11 12 11 10 13 15 13 11 11 14 19 24 24 24 23 21 21 22 22 22 22 21 21 20 18 17 17 17 16 16 15 15 13 14 14 14 15 15 15 16 18 17 16 18 19 19 19 20 22 23 24 24 23 23 21 20 23 23
1 1 1 3 2 0 1 2 3 3 4 5 5 5 6 7 6 4 4 3 2 2 4 4 6 4 4 1 2 4 3 5 4 5 6 6 7 8 10 11 12 12 11 14 16 14 11 11 12 17 23 24 23 22 22 21 21 22 23 22 22 21 19 18 17 18 18 18 17 16 15 14 13 14 15 15 16 16 16 18 18 16 18 19 20 21 22 24 25 26 26 24 23 21 22 25 23
1 1 1 2 2 1 2 2 2 3 5 5 6 7 7 6 6 5 5 5 3 4 5 2 4 4 2 2 2 2 2 7 5 6 6 6 8 9 10 9 10 12 11 14 16 15 12 11 12 16 22 25 24 22 21 21 22 23 24 24 22 20 19 18 17 18 18 18 18 18 17 16 14 14 15 16 17 18 17 18 19 17 18 20 21 21 23 25 27 28 27 25 24 22 25 26 24
2 2 2 2 2 2 3 2 3 4 5 4 5 7 8 7 6 4 3 4 3 2 3 3 2 3 1 1 2 0 5 8 9 9 8 7 8 10 10 9 9 10 11 14 14 14 13 12 12 15 21 24 24 23 21 21 24 25 24 25 23 20 19 18 18 18 19 19 19 19 19 18 17 15 15 16 18 19 18 18 20 18 18 20 21 21 23 27 30 31 29 27 27 26 29 27 25
1 2 2 2 2 3 3 2 4 5 6 5 5 6 4 3 5 4 3 4 2 2 4 1 2 3 2 3 3 2 3 9 11 10 9 9 10 11 11 11 10 11 12 13 13 13 14 14 14 15 19 23 24 23 22 22 23 23 24 26 24 21 20 20 20 19 19 19 19 20 20 19 18 17 16 16 17 19 18 18 20 19 18 19 22 22 24 28 32 33 31 28 27 27 29 28 26
1 1 4 1 2 2 3 2 3 4 6 4 3 5 6 2 3 4 4 2 1 0 5 6 2 3 2 3 3 5 5 10 10 8 10 10 10 12 13 13 12 13 13 14 13 13 14 15 16 16 19 22 25 24 23 22 22 21 23 25 24 22 22 21 21 20 20 19 19 19 20 19 18 18 18 17 17 19 19 19 20 19 18 19 22 22 24 28 30 31 29 26 23 23 27 27 25
2 1 4 1 0 2 3 2 3 2 5 5 1 5 6 3 2 2 2 2 3 3 5 5 5 3 2 1 2 5 6 13 12 10 10 10 10 11 12 14 13 13 14 15 15 15 14 15 17 18 19 22 25 24 23 22 21 22 25 24 24 23 23 23 22 21 21 19 19 19 18 18 18 18 18 17 17 18 19 19 19 19 19 20 22 23 24 26 27 26 25 24 22 21 24 25 24
4 0 3 1 1 1 3 4 3 3 5 6 2 4 4 3 4 5 4 4 6 4 2 2 5 3 3 4 4 7 14 17 14 13 12 11 11 11 11 12 13 14 13 14 15 16 16 15 16 18 20 22 24 24 24 23 22 23 24 23 24 24 23 24 24 23 22 21 20 19 18 17 17 17 17 17 18 19 19 19 19 19 19 20 22 23 23 25 27 26 24 24 23 21 23 23 22
4 2 3 1 2 3 4 4 3 3 5 4 1 4 4 5 4 4 5 4 5 5 3 1 3 2 5 7 7 12 21 20 16 16 15 13 14 13 13 13 13 14 14 14 15 16 17 16 17 19 21 22 24 25 25 24 23 23 22 21 22 23 23 24 25 24 23 22 21 19 18 17 17 17 16 16 18 19 19 18 17 18 19 20 22 23 24 28 28 26 26 24 23 24 24 22 20
2 3 2 2 3 5 4 4 4 4 5 4 3 4 3 7 3 2 6 3 3 7 5 4 4 1 3 2 6 12 22 21 18 17 17 15 15 15 14 15 15 15 16 16 16 17 18 18 18 20 21 22 25 26 27 26 26 25 24 22 20 21 21 23 25 24 23 22 21 19 17 17 17 16 16 16 18 19 19 18 17 18 20 21 22 23 26 29 28 27 27 25 27 27 25 23 20
2 2 3 4 4 5 5 6 6 4 3 4 5 3 3 6 5 3 5 4 5 7 7 5 8 6 5 14 16 5 17 21 20 18 17 16 15 15 16 17 18 19 19 18 18 18 19 20 20 21 21 22 25 27 27 27 27 27 25 24 22 21 20 21 22 22 23 22 22 20 19 19 18 17 17 18 19 19 18 18 18 19 20 21 23 25 27 28 28 31 28 27 31 28 25 23 21
3 3 3 5 5 5 5 6 4 3 4 3 5 2 2 3 4 4 5 7 7 7 7 7 8 8 10 19 21 9 7 15 19 18 18 17 17 17 19 19 20 21 21 22 22 21 21 22 22 22 22 22 25 28 28 28 28 27 27 26 24 22 20 21 21 21 22 22 22 22 21 21 20 19 19 19 18 18 17 18 18 19 21 22 25 27 29 29 29 30 27 28 32 28 25 23 22
2 3 4 6 5 5 5 5 5 4 5 3 4 3 2 2 2 2 2 7 6 2 4 6 7 10 11 12 15 12 3 7 11 13 14 17 19 20 20 20 21 22 22 23 24 23 23 23 24 24 23 23 25 28 30 30 29 28 28 27 25 24 22 21 21 22 22 22 22 22 23 23 23 21 20 19 18 17 17 18 19 20 22 25 28 29 30 31 30 27 25 28 31 28 26 24 22
2 4 6 5 4 5 6 6 6 5 5 4 3 2 5 4 3 2 2 5 6 2 2 3 7 10 12 10 9 10 7 7 8 7 9 12 16 19 20 19 19 20 21 22 24 25 26 25 25 26 25 24 26 28 30 31 30 29 29 29 27 25 24 24 23 23 22 22 22 22 23 23 23 22 20 19 18 18 18 19 21 24 27 29 31 32 32 32 30 26 25 29 30 28 26 24 23
1 4 6 4 4 5 6 5 6 6 5 4 4 3 4 3 2 4 5 4 5 5 7 8 9 8 11 13 8 8 8 6 9 13 14 16 20 21 21 21 21 21 22 22 23 24 26 27 26 27 27 27 27 28 29 31 32 32 32 31 30 28 27 26 26 25 24 23 22 22 22 22 22 22 21 20 19 21 21 21 24 29 32 32 33 34 33 31 28 24 26 32 31 28 27 24 24
3 5 4 5 5 5 5 4 6 6 5 4 5 4 4 3 5 5 7 9 10 9 8 9 10 11 14 15 10 9 8 7 13 18 20 20 22 27 27 22 20 22 23 24 23 23 25 27 27 27 29 29 28 28 28 28 30 32 33 33 32 31 29 29 29 28 26 25 23 22 22 22 23 22 22 21 21 23 24 23 27 31 33 34 35 36 34 31 27 25 30 33 30 28 27 25 24
6 6 5 7 8 8 8 6 6 5 6 7 4 3 5 7 6 4 6 10 11 10 8 9 12 13 13 11 10 9 9 12 18 23 26 26 26 30 28 21 17 17 18 21 21 22 24 26 27 28 29 30 29 28 28 28 28 29 31 32 32 32 30 30 31 30 28 26 25 24 23 22 23 23 23 22 23 25 27 27 30 34 35 35 37 37 36 31 27 28 33 33 30 28 27 25 25
7 7 5 5 6 8 8 7 7 6 7 6 4 5 8 10 6 4 8 10 11 11 9 10 10 10 8 8 11 10 9 13 18 22 25 23 23 25 21 15 13 10 10 11 14 17 21 23 25 27 29 30 30 29 29 29 29 29 30 31 32 32 31 31 30 29 28 27 26 26 24 23 24 24 25 25 25 28 30 31 33 36 37 38 38 38 36 32 28 30 32 30 28 26 25 25 23
6 7 4 3 5 6 5 6 6 7 5 4 5 8 11 9 4 5 10 13 14 12 10 10 8 7 8 9 10 7 4 4 6 5 5 3 4 6 6 6 4 5 5 4 4 8 12 17 21 24 26 28 30 31 30 30 30 31 32 32 32 31 32 31 29 28 28 27 27 27 25 25 25 24 26 27 27 29 30 31 34 37 39 40 40 39 37 33 30 30 30 27 25 23 23 23 22
4 5 4 6 7 6 4 6 7 6 5 5 7 11 11 5 2 5 10 13 13 9 10 11 8 8 10 8 3 3 6 8 10 9 10 11 10 11 11 10 9 8 7 6 5 3 2 6 12 19 22 25 28 30 31 31 32 33 33 33 33 32 32 30 29 28 27 27 27 26 25 24 24 24 26 28 29 30 31 33 36 39 41 42 41 40 37 34 33 32 30 27 25 22 21 21 21
2 2 4 6 6 6 5 6 7 4 4 8 9 10 10 1 3 8 12 13 9 6 10 10 8 9 8 1 5 6 8 10 12 13 12 11 11 12 13 15 13 11 10 10 9 7 5 2 3 8 14 21 25 28 27 28 30 33 34 34 33 32 32 31 29 28 26 26 26 25 23 21 21 23 26 29 30 31 34 36 39 41 42 42 42 40 37 35 35 33 31 28 27 25 22 21 20
2 1 4 7 7 7 7 6 7 5 5 7 4 5 9 4 7 12 13 14 7 6 9 9 9 10 3 5 7 5 6 9 12 13 10 10 10 11 13 15 15 13 13 12 10 9 7 5 3 2 3 11 20 26 27 26 26 28 30 33 34 32 31 30 29 27 26 24 24 24 20 18 20 23 26 30 31 33 36 39 41 42 43 43 42 41 38 36 36 33 29 28 28 28 26 24 22
3 2 2 5 7 8 7 5 7 6 7 6 4 2 7 7 11 14 13 12 6 6 9 8 9 6 2 5 5 5 6 8 10 11 10 11 11 12 14 14 15 15 14 12 10 10 9 8 5 3 3 2 7 16 23 26 28 26 25 26 29 31 31 30 29 27 25 23 22 22 18 17 20 23 26 31 32 34 38 41 42 42 43 43 42 41 39 37 37 33 29 28 29 29 28 27 24
3 3 3 2 3 6 5 4 3 3 6 3 7 3 7 7 11 13 10 8 6 7 9 8 8 4 5 5 5 6 5 8 10 11 12 13 12 13 13 13 14 14 14 13 12 11 9 9 8 6 4 5 5 5 10 17 23 25 24 23 23 28 29 29 27 25 23 20 20 20 16 15 17 21 27 31 34 36 39 42 42 43 43 43 43 42 41 40 39 34 31 30 29 29 29 27 25
2 2 4 2 3 5 6 5 3 5 7 2 7 5 7 7 11 10 6 2 4 7 7 7 7 4 6 4 5 5 5 7 10 12 12 13 13 13 13 14 14 13 14 12 11 9 7 8 8 8 7 6 7 6 6 8 15 20 21 20 21 24 26 26 26 24 22 19 17 18 16 13 14 19 26 33 35 37 41 43 43 44 44 45 45 43 42 43 41 35 32 32 32 31 29 26 25
2 2 5 3 4 4 5 7 5 7 7 1 4 5 5 6 8 8 4 1 5 6 6 7 6 2 6 4 4 4 3 5 7 10 12 12 13 13 14 14 14 14 14 12 11 9 7 6 7 8 9 9 9 8 7 7 11 15 17 16 17 21 23 23 22 20 20 17 16 18 18 14 13 16 23 32 36 37 41 43 43 44 46 45 45 45 44 43 42 38 34 33 33 32 29 27 25
3 2 4 4 5 5 4 6 6 2 3 3 4 5 7 8 7 8 6 4 4 5 7 8 6 3 5 4 4 4 3 4 5 8 11 12 13 13 14 14 13 13 13 13 12 11 9 7 5 6 8 9 10 9 7 7 10 12 13 13 13 15 17 18 17 16 15 15 15 18 20 18 16 16 21 28 34 34 36 41 42 42 44 44 43 43 43 42 40 38 37 35 33 32 30 28 27
4 4 3 5 5 6 7 5 5 3 1 4 6 6 9 10 9 8 8 7 6 7 8 7 3 4 5 4 5 4 4 4 4 7 10 12 13 13 13 13 13 13 12 12 12 12 10 9 7 6 7 8 9 9 5 6 10 11 12 12 12 10 10 12 13 11 10 11 13 16 18 17 18 20 22 27 33 33 30 34 40 41 41 41 40 37 37 40 39 37 37 35 32 30 30 30 28
6 5 4 5 6 6 7 6 6 3 4 7 7 9 10 11 11 10 9 7 7 9 8 5 3 5 5 5 4 4 5 4 4 8 11 13 13 14 13 13 13 13 13 12 12 13 13 12 10 8 8 8 8 6 2 4 9 11 12 12 11 9 7 6 7 7 7 7 9 11 13 14 15 18 22 25 29 32 29 29 33 39 41 40 39 38 37 40 40 37 35 34 32 28 27 29 29
5 5 5 7 7 8 6 6 7 3 3 7 8 10 11 11 12 12 11 8 8 9 8 6 5 5 5 6 5 5 5 3 5 9 11 13 13 14 14 13 13 14 15 14 14 16 16 14 12 11 11 9 7 5 2 2 6 9 11 12 11 9 6 5 4 3 4 5 7 9 11 11 12 13 17 21 23 26 29 29 28 31 37 38 40 41 39 40 40 37 35 32 32 29 26 27 29
7 6 7 8 8 10 8 7 7 4 3 6 7 11 13 11 12 13 11 8 8 9 8 9 7 6 5 6 7 5 5 3 5 7 10 13 14 14 15 16 16 16 17 17 17 17 16 16 15 15 13 12 10 8 4 1 3 6 8 10 10 9 7 5 4 3 1 3 6 9 10 10 12 11 12 16 19 20 23 29 31 30 31 33 38 38 34 34 36 37 36 31 29 30 29 29 30
8 6 6 8 6 7 8 7 6 4 4 6 7 11 14 12 12 13 11 9 8 6 5 6 7 9 6 6 7 6 5 4 4 5 8 12 14 15 16 17 17 17 18 18 18 17 17 17 17 16 15 13 12 10 7 5 2 3 6 8 8 8 8 7 6 5 3 2 5 8 9 9 10 10 10 12 15 17 18 22 27 30 29 30 35 36 31 29 32 35 37 36 32 29 27 30 33
6 6 5 8 6 4 6 5 4 4 4 7 9 12 13 11 10 13 11 7 3 1 3 3 2 7 7 6 5 5 5 5 4 4 6 9 13 15 17 17 17 18 19 19 18 18 19 18 17 17 17 15 13 12 10 8 5 5 7 8 8 9 11 9 8 7 6 4 5 7 9 9 8 8 8 8 10 13 15 17 19 23 27 29 32 33 32 30 30 31 33 35 35 30 25 28 33
7 8 7 10 9 7 9 5 4 5 4 4 6 11 11 8 11 13 5 1 2 3 4 5 5 4 6 6 5 5 5 5 4 4 4 7 11 14 15 16 17 18 19 18 18 18 18 18 18 18 17 17 15 13 12 10 8 9 10 10 10 11 12 10 9 10 10 8 9 9 10 11 10 8 7 6 6 8 11 13 14 16 21 24 26 27 30 29 28 28 29 31 32 30 25 26 30
6 8 10 13 11 9 10 6 6 6 6 3 2 7 7 2 7 10 2 2 2 1 4 4 4 5 5 6 6 5 5 5 4 5 5 7 10 12 14 16 16 17 16 16 17 17 18 18 18 18 17 17 16 15 14 12 11 11 11 12 12 13 14 14 14 14 13 11 10 10 10 11 10 9 8 6 4 4 6 8 10 12 15 17 19 21 25 26 27 27 27 28 30 31 28 26 29
7 6 10 12 10 8 8 5 3 4 6 3 4 4 7 5 6 7 3 4 6 3 3 6 5 5 5 5 5 5 5 5 5 5 5 7 9 10 12 14 15 15 14 14 16 17 18 19 19 19 19 18 17 15 15 14 16 16 17 17 18 17 17 16 16 17 15 13 11 10 9 9 10 10 10 8 5 3 1 4 7 9 11 13 14 16 18 20 24 25 23 23 25 26 27 28 29
7 4 8 8 7 7 7 5 5 4 4 5 5 5 8 10 7 6 7 7 7 5 6 6 6 5 5 5 5 5 5 5 5 5 5 6 8 9 10 12 14 14 14 14 15 18 20 20 20 20 20 19 18 17 17 17 19 20 20 21 21 20 19 18 18 19 18 15 14 13 11 10 10 11 12 12 10 6 4 2 3 5 7 8 9 11 13 15 17 21 21 20 20 19 20 23 26
7 5 6 5 5 7 4 4 5 2 3 7 6 6 6 10 5 3 5 7 8 8 10 9 7 6 6 6 5 5 5 5 5 5 5 6 8 9 9 11 13 14 15 15 16 19 21 21 20 21 21 21 20 19 19 20 20 21 21 22 22 21 21 21 20 21 20 18 18 17 16 14 13 12 13 13 13 11 8 6 4 3 3 3 4 5 7 9 11 14 17 17 17 15 14 15 19
5 4 3 2 2 1 2 3 3 2 4 12 7 6 5 10 7 3 3 6 10 9 9 9 7 6 6 6 6 6 5 5 5 5 6 7 9 9 10 12 15 15 15 16 18 20 21 21 21 21 22 22 22 21 21 21 21 22 23 23 23 22 22 22 23 24 23 22 22 21 19 18 17 17 16 15 14 14 12 10 8 7 6 5 5 6 6 5 5 6 8 11 12 12 12 11 12
2 4 3 4 4 3 1 2 1 1 9 13 7 9 8 8 5 5 5 5 8 7 4 6 7 7 7 6 6 6 6 5 5 5 6 8 9 10 12 14 14 15 16 19 22 22 21 22 22 23 23 23 23 22 23 23 23 23 24 24 24 23 23 23 25 25 25 25 25 23 23 22 21 20 19 18 16 14 13 12 10 10 9 8 7 7 7 7 6 5 2 2 5 8 9 8 8
4 3 3 3 4 4 4 3 3 4 12 8 5 10 11 9 4 4 6 4 4 5 6 9 12 10 9 7 6 6 6 6 5 5 5 6 8 9 11 12 13 15 18 21 22 23 23 22 22 23 24 24 24 24 24 25 25 25 25 24 25 24 24 25 26 26 25 24 24 23 24 24 24 23 21 21 19 16 14 13 11 11 10 9 8 8 7 6 6 5 5 4 3 4 6 6 6
4 3 3 1 5 3 3 3 1 6 9 5 4 6 8 11 8 4 7 5 3 4 5 9 13 12 10 8 7 6 5 5 5 4 4 4 5 7 9 10 12 16 18 20 21 23 24 24 23 24 24 24 24 25 26 26 26 26 26 26 27 26 27 28 28 27 25 24 24 24 25 25 26 26 25 24 21 19 17 16 14 14 13 11 9 7 6 5 5 5 6 5 4 5 6 6 5
5 4 4 4 2 2 5 5 2 5 7 7 4 4 3 7 5 3 5 4 5 5 3 4 9 11 9 8 7 6 6 5 5 4 4 4 5 7 9 10 13 15 17 19 21 22 24 24 25 26 25 24 24 26 27 28 28 27 27 27 28 28 28 29 28 27 26 25 26 25 25 25 26 26 26 25 23 21 19 18 17 16 15 13 11 9 7 5 4 3 4 4 4 3 3 3 4
5 5 4 5 5 4 5 4 4 4 5 6 2 3 3 3 1 2 3 3 4 3 3 7 9 9 8 8 7 6 6 5 5 5 4 5 7 8 10 12 14 15 17 19 20 21 23 24 25 26 26 25 25 26 27 28 28 28 28 28 28 28 28 28 27 26 25 26 26 26 25 26 26 25 24 23 22 22 20 19 17 17 16 14 13 11 10 8 6 5 4 2 2 2 2 4 5
3 3 4 4 5 5 4 6 6 4 6 7 3 3 4 3 1 1 1 2 4 5 5 9 9 9 9 7 7 6 6 5 5 5 5 6 8 10 11 13 15 16 18 19 20 21 22 23 24 26 25 26 27 27 28 28 27 27 28 28 28 28 28 28 27 26 26 25 25 26 25 25 24 24 24 23 22 22 21 20 19 18 17 15 14 13 11 10 9 8 7 5 3 2 1 2 3
0 2 3 5 4 6 5 7 6 6 8 8 6 7 6 1 1 1 2 2 3 3 4 7 8 9 8 7 6 6 6 6 5 5 5 6 8 10 12 13 15 16 18 20 21 21 22 22 23 24 25 25 26 27 27 28 28 28 28 28 28 28 28 28 27 26 26 26 25 25 24 24 23 23 22 22 21 21 21 21 20 19 18 16 15 14 12 11 10 9 9 8 7 5 2 1 0
3 3 4 1 1 2 2 4 4 6 8 5 6 11 10 6 4 1 1 2 4 5 5 7 8 8 8 7 7 7 7 7 6 6 6 7 9 11 13 15 16 18 19 21 21 21 22 23 23 24 25 24 24 25 26 27 28 29 29 28 28 28 28 28 27 27 26 27 27 26 25 25 24 23 22 21 21 20 20 20 20 20 19 18 16 15 14 12 11 11 10 9 8 6 4 4 3
4 4 2 2 1 2 2 3 4 6 8 6 8 12 11 9 5 2 4 9 9 8 7 8 10 9 8 8 9 9 9 9 7 7 6 7 10 11 13 15 17 19 20 21 22 22 23 23 23 24 25 25 24 25 26 27 28 29 29 29 29 30 30 29 29 28 28 28 28 27 27 26 25 24 23 23 22 22 21 20 20 19 19 18 17 16 15 14 13 13 12 11 9 7 5 5 4
1 1 1 2 3 3 3 4 4 4 7 8 9 10 9 7 5 8 10 13 12 11 10 11 12 11 9 9 10 10 10 9 8 8 7 8 11 13 14 16 17 19 20 20 21 22 22 22 23 24 25 26 26 27 27 28 28 29 29 29 29 29 30 30 30 30 30 30 29 28 28 26 26 26 24 24 23 23 22 21 20 20 19 19 18 17 16 14 14 14 13 13 11 10 8 8 6
1 2 4 2 2 2 3 5 5 4 6 7 7 7 7 5 3 8 11 10 12 16 15 13 13 13 12 10 11 11 10 10 9 9 8 9 13 14 15 16 17 18 18 18 19 19 20 20 21 23 23 24 26 26 27 27 28 28 29 30 29 29 29 30 30 30 30 30 29 29 28 26 26 26 25 24 24 23 22 21 20 19 19 19 18 17 16 15 15 14 14 13 12 11 10 10 9
4 4 5 5 4 4 6 8 6 4 5 7 8 9 9 4 1 1 4 5 6 13 14 13 13 14 12 10 11 12 11 11 10 10 9 10 13 15 15 16 16 17 17 17 17 17 18 18 19 21 22 22 23 24 26 27 27 28 29 29 29 29 29 29 30 30 30 29 28 28 27 26 26 25 24 24 23 23 22 20 19 19 18 18 18 17 16 15 15 14 14 13 12 12 11 11 10
Wind_Direction
243 227 244 228 215 45 346 83 98 320 90 154 235 186 252 222 238 289 264 276 291 245 236 205 174 135 136 165 173 193 187 176 176 151 215 240 135 163 180 191 217 206 191 188 183 190 194 192 188 184 189 189 186 186 187 190 191 193 191 193 193 194 193 190 191 189 187 182 180 182 180 177 176 176 173 175 176 176 176 177 180 181 179 178 175 171 174 177 166 159 153 146 143 139 140 139 134
236 232 241 246 61 105 189 92 104 323 86 239 259 190 242 250 254 250 242 253 229 238 227 198 179 97 73 117 135 113 260 240 179 163 224 177 139 175 188 187 209 206 194 195 189 193 196 195 191 186 189 191 191 190 189 191 192 193 191 192 195 197 195 194 195 192 190 185 184 184 183 183 181 180 178 178 178 177 178 180 183 184 183 182 178 177 179 174 167 163 156 152 150 144 143 143 137
231 249 317 7 67 93 84 56 112 155 141 212 261 245 267 297 245 242 234 232 229 255 289 205 137 101 61 45 99 137 269 274 174 166 154 165 163 185 184 184 202 211 201 199 193 194 198 198 194 188 189 192 194 193 192 195 195 192 191 193 197 198 197 197 196 194 193 190 190 190 189 189 187 185 183 182 181 179 181 183 186 186 185 186 183 182 182 173 168 165 160 155 154 149 146 145 138
239 258 314 11 64 45 66 68 152 139 172 204 243 258 251 237 248 252 238 234 241 272 313 29 14 198 82 43 239 172 260 300 244 185 153 185 173 167 171 179 197 207 201 198 196 193 198 201 198 192 190 193 197 196 195 197 197 194 193 195 197 198 199 198 196 195 197 197 197 195 196 198 193 191 190 189 186 182 185 186 188 190 188 188 187 186 183 176 172 166 161 157 157 156 151 148 142
246 257 289 21 85 101 105 114 147 138 196 183 206 258 236 225 242 253 251 257 257 245 183 113 333 301 29 224 193 156 231 292 267 205 171 178 157 155 164 175 192 201 201 196 196 194 196 203 203 198 192 194 199 199 198 198 199 196 194 195 196 197 197 197 198 198 200 204 203 197 198 201 197 198 199 198 194 189 190 190 190 194 191 189 190 191 185 178 175 168 164 162 161 163 157 151 145
246 289 299 48 106 173 119 151 184 203 226 175 196 254 246 234 223 231 267 291 265 221 189 154 171 292 321 284 113 143 225 211 221 198 175 168 152 152 165 178 185 194 207 197 195 195 194 203 207 203 196 196 200 202 202 201 200 199 197 197 197 197 198 201 203 204 207 210 210 204 200 199 200 205 206 204 202 198 195 193 194 197 195 192 193 193 187 181 178 172 168 166 167 168 161 152 148
200 44 40 71 355 35 109 190 209 235 242 189 205 252 260 259 228 215 263 293 318 279 211 205 155 110 258 264 78 22 350 235 208 164 163 162 154 155 174 180 177 185 207 202 197 197 198 204 209 208 201 199 202 204 205 204 203 202 201 198 198 199 202 206 207 211 215 217 217 213 207 203 203 208 211 209 207 205 202 198 198 201 199 196 196 194 189 184 179 175 172 171 173 170 162 153 150
87 65 81 98 45 18 109 217 226 215 244 226 232 248 247 253 233 204 220 204 209 240 194 216 134 115 259 234 198 308 38 119 127 131 154 155 158 166 179 179 180 183 201 206 199 198 203 206 212 212 206 203 205 206 206 205 204 204 202 200 200 201 203 206 210 215 218 219 218 215 211 211 210 210 213 214 211 208 207 204 202 205 202 200 199 196 192 185 179 177 178 181 178 169 161 155 152
43 83 75 101 121 66 157 241 250 229 259 266 263 255 246 243 229 209 213 220 209 203 224 212 148 158 257 228 213 292 44 123 123 134 144 147 162 170 178 180 187 186 195 206 202 199 203 206 213 216 210 207 208 209 209 206 206 204 202 201 201 202 205 207 212 218 218 218 217 214 213 216 217 216 216 215 214 210 209 209 207 209 208 204 201 201 198 187 180 179 185 188 179 167 161 157 154
13 45 113 109 118 169 235 260 268 254 258 271 274 264 257 238 226 218 193 225 208 183 242 170 136 201 234 187 221 301 161 156 161 166 151 153 164 169 178 181 190 191 194 204 205 202 203 205 210 217 214 211 211 212 210 208 206 201 199 201 204 206 209 212 216 219 220 220 216 215 216 216 216 218 220 219 216 214 213 211 210 215 213 207 203 205 200 189 184 185 191 191 178 167 162 158 156
12 336 121 126 113 178 221 259 271 263 272 302 295 260 253 231 216 234 205 251 248 212 275 72 128 224 90 283 259 175 169 170 183 182 164 164 167 170 180 180 183 189 195 203 207 204 203 205 205 213 217 216 216 217 214 213 211 204 202 203 206 212 215 218 219 220 222 223 220 218 219 219 219 219 222 225 222 219 217 214 213 217 217 212 206 206 203 192 188 190 194 189 177 168 163 160 159
51 314 74 115 169 191 201 221 260 275 290 294 278 266 276 222 193 227 233 269 288 306 286 171 185 169 108 295 274 293 226 198 197 184 166 166 168 172 183 186 182 186 197 206 209 207 204 205 204 207 215 219 220 222 218 216 217 214 211 208 210 216 218 221 221 223 224 224 224 222 223 223 224 223 225 228 226 223 222 219 217 219 221 217 211 210 206 197 192 193 193 185 175 168 163 162 161
100 201 85 123 190 165 183 206 256 284 295 265 246 296 336 355 202 199 178 222 173 46 258 216 182 125 167 281 293 309 262 211 203 189 172 166 169 172 183 189 192 195 200 212 216 212 208 206 207 208 213 220 222 225 222 218 219 216 214 212 214 217 219 222 222 224 225 226 226 226 227 228 229 228 229 231 230 227 225 225 221 223 224 218 216 213 207 200 195 191 184 175 171 167 164 163 161
179 175 113 209 245 132 176 227 261 255 276 269 296 337 342 346 298 261 150 252 224 192 229 199 147 137 192 264 309 302 234 206 197 194 180 173 182 178 182 188 198 205 207 217 223 224 221 215 212 213 214 218 221 223 222 218 217 214 214 216 218 218 218 221 222 224 226 227 228 230 231 233 235 233 233 234 232 228 226 228 226 227 224 220 221 214 208 203 194 187 178 171 172 171 166 163 160
177 142 104 144 326 177 210 220 213 188 258 276 320 357 339 317 357 343 340 312 261 231 231 170 144 165 205 179 227 238 209 198 189 193 184 184 196 192 192 192 198 206 213 221 225 228 229 226 219 217 216 217 219 220 218 216 217 217 217 220 222 221 220 222 223 224 226 228 231 234 235 238 240 235 235 234 231 229 228 229 229 229 225 224 222 215 209 200 191 188 180 172 172 172 167 161 159
156 87 86 150 215 217 225 208 156 174 258 275 288 22 352 301 4 353 325 335 297 310 339 255 182 179 186 182 219 213 197 191 185 190 189 192 200 200 203 203 207 209 215 222 225 227 226 228 224 219 218 219 220 219 219 217 221 225 222 222 224 224 224 224 225 225 228 231 233 235 238 240 238 234 233 229 228 229 229 230 231 230 228 227 221 216 209 194 187 183 177 174 172 170 165 160 158
89 86 124 207 206 212 204 193 179 191 261 288 302 38 27 302 324 305 309 341 329 329 332 297 302 315 169 254 280 212 193 189 183 185 188 193 199 202 209 208 212 215 218 223 225 226 224 226 225 222 221 222 223 221 221 222 226 229 228 227 227 228 228 227 227 226 229 230 230 232 236 236 231 229 227 224 226 228 229 229 231 230 229 225 216 210 202 191 186 180 177 177 173 169 165 161 160
89 117 186 215 203 210 193 190 197 190 246 284 307 31 55 309 315 333 329 341 357 336 322 320 319 329 16 3 346 256 191 184 181 183 184 189 197 202 212 212 213 217 217 220 223 226 226 225 223 223 224 223 224 223 223 225 228 228 228 228 228 229 228 228 228 225 226 226 227 227 226 227 227 228 225 223 225 227 229 228 230 229 224 218 208 201 194 188 184 181 180 177 173 169 165 164 165
148 149 205 225 201 208 206 200 207 206 216 247 299 337 97 295 310 350 332 311 341 342 322 336 333 332 358 11 5 345 191 179 182 185 185 190 198 204 211 210 213 217 215 217 220 224 227 226 223 223 225 224 224 225 224 224 227 228 227 227 228 228 225 225 226 224 224 224 227 226 220 220 225 227 225 224 225 227 228 226 228 226 217 209 202 195 187 183 181 181 182 177 172 168 166 169 169
181 172 221 233 207 224 232 220 223 210 183 186 285 325 352 242 240 336 301 297 316 344 331 342 332 318 322 351 8 359 303 216 204 198 203 204 204 209 213 211 212 217 217 219 220 221 224 226 226 225 226 224 222 223 224 224 224 227 228 228 229 228 226 224 224 225 225 225 226 225 221 219 223 224 224 226 225 225 224 223 225 220 209 200 193 187 182 182 184 184 184 178 172 169 171 173 171
189 193 221 223 188 230 242 223 214 188 164 165 211 312 313 255 194 217 216 301 303 230 201 238 267 290 302 309 348 357 320 288 285 279 277 259 239 227 223 221 226 231 229 225 221 219 222 225 227 228 227 224 222 222 223 225 225 225 227 229 230 230 229 228 226 227 227 227 226 225 223 222 225 226 224 225 225 222 221 221 218 208 199 193 186 182 181 184 186 186 185 178 173 173 175 175 173
193 229 238 229 186 230 246 209 192 183 174 174 198 235 264 244 215 204 190 245 256 226 209 201 221 255 282 283 296 314 295 291 298 298 303 297 285 270 251 237 237 241 237 232 227 223 223 224 227 229 229 225 223 222 222 224 225 226 226 227 229 230 231 230 229 228 228 228 227 225 225 225 228 228 226 225 225 225 225 224 213 199 192 188 185 184 185 185 185 188 185 178 176 176 176 178 177
222 258 251 241 217 231 249 215 208 198 191 211 217 213 205 235 259 218 197 225 233 229 218 205 221 238 250 260 265 265 263 277 280 279 288 292 289 286 278 263 254 249 242 239 235 229 225 224 226 228 229 227 224 223 222 224 226 227 228 227 228 229 229 228 228 227 228 229 228 227 226 227 227 227 226 224 225 228 226 221 209 196 190 188 188 189 187 185 186 186 182 178 178 177 176 180 180
218 245 239 236 227 229 240 240 238 213 211 229 205 178 212 232 249 231 215 234 240 238 233 237 251 250 246 252 259 249 236 251 258 259 269 275 276 280 285 289 290 277 260 253 246 238 232 228 226 227 228 228 227 226 225 226 228 229 230 229 229 228 226 225 226 226 227 228 229 229 229 229 228 227 226 224 227 228 222 214 204 196 192 191 191 191 186 184 185 182 181 180 179 178 179 182 183
221 228 234 236 234 236 243 253 261 247 233 224 183 207 232 230 237 246 244 256 260 253 252 258 260 257 250 246 253 256 239 242 252 250 250 256 262 269 277 289 301 300 288 274 262 252 245 239 232 229 228 229 228 228 228 229 231 231 229 229 229 228 226 225 224 223 224 227 230 230 229 230 229 228 227 225 225 221 215 207 200 196 193 192 192 189 184 181 179 178 181 181 179 180 182 185 186
226 219 237 248 257 257 252 255 252 250 240 186 197 242 246 239 256 270 249 252 259 261 263 261 259 259 257 252 256 270 274 293 312 269 223 212 260 282 297 319 343 360 2 350 298 272 261 255 243 235 234 234 232 230 230 232 232 232 231 230 230 228 226 226 222 220 221 225 229 228 227 228 229 229 227 224 221 216 211 204 198 194 193 193 193 188 182 180 176 175 178 180 182 184 187 188 189
220 219 249 244 258 268 243 246 244 248 246 196 213 252 256 238 209 263 253 246 249 256 260 260 263 261 259 269 305 32 51 36 34 63 69 56 43 27 20 22 33 38 38 48 43 35 302 262 247 241 240 240 237 234 234 236 236 235 235 233 230 228 226 225 221 219 220 222 226 226 226 227 228 229 227 222 217 213 209 204 197 193 192 193 194 189 184 183 181 180 180 183 189 191 191 191 191
236 234 282 265 278 279 234 245 253 249 254 213 208 257 272 223 167 244 255 253 242 227 249 260 260 260 264 321 69 67 63 50 46 58 52 37 32 21 16 16 18 27 37 42 44 53 75 100 210 232 240 242 239 236 236 236 237 238 238 234 230 229 226 223 219 217 218 220 223 223 223 227 230 229 227 224 218 212 208 203 197 193 192 193 193 190 186 185 182 182 183 187 193 195 197 195 193
300 350 317 293 318 297 245 247 251 223 244 229 178 288 279 234 229 244 250 257 244 202 242 258 254 265 292 88 95 85 80 72 58 55 47 39 34 24 21 16 14 19 26 32 38 49 54 55 80 138 230 244 240 238 237 237 239 240 239 235 231 230 226 221 218 216 218 220 221 219 219 233 238 231 227 225 221 214 208 203 198 195 194 195 193 190 187 185 182 181 184 190 193 196 199 197 193
312 346 320 305 333 297 248 233 241 227 251 239 115 295 263 240 245 248 251 259 244 209 238 245 251 269 72 107 111 95 84 76 65 56 46 41 38 34 30 24 22 19 18 23 28 36 33 26 28 39 45 330 259 245 243 243 245 245 243 241 234 228 226 223 219 218 218 219 219 215 220 241 243 233 228 225 222 217 209 203 199 197 198 198 196 194 191 186 183 185 188 191 192 194 196 195 191
316 314 293 304 303 279 269 250 218 218 258 183 125 233 257 256 258 254 260 261 228 225 242 242 246 229 135 142 124 102 77 70 65 56 45 40 38 37 37 33 31 24 19 19 16 18 13 10 8 2 7 0 346 290 261 255 254 250 248 253 244 229 226 225 223 222 219 219 220 218 225 247 246 235 230 226 223 218 209 203 201 201 200 200 198 196 194 190 187 189 192 191 190 193 194 192 191
356 292 287 295 223 264 306 288 202 212 268 120 130 239 268 262 260 258 274 297 190 220 243 246 250 202 155 153 114 106 89 77 64 50 43 42 39 37 39 37 37 33 27 20 12 6 354 348 342 339 336 324 332 325 302 284 270 260 254 259 254 234 225 224 224 224 221 220 225 226 229 245 253 244 234 227 223 219 212 206 204 203 202 201 200 197 195 193 191 191 193 191 188 189 191 190 192
351 213 253 258 236 278 318 295 245 212 250 275 175 232 272 267 265 269 278 165 176 215 245 247 255 185 147 148 111 111 96 75 56 43 38 40 43 41 41 40 39 40 34 29 22 14 4 345 324 325 324 315 322 316 301 294 280 267 258 259 254 236 221 217 221 223 221 220 224 229 229 236 254 258 243 228 221 218 214 209 206 204 203 202 200 198 197 196 193 193 192 192 192 189 190 191 191
294 230 242 250 236 259 288 296 296 214 197 267 258 245 259 262 269 284 285 265 236 242 255 252 245 167 147 145 113 107 83 65 43 35 34 36 44 46 46 44 41 41 38 34 30 28 28 16 346 330 318 311 318 320 308 276 263 261 254 247 241 229 213 207 214 222 222 221 223 227 228 230 241 252 251 236 223 218 213 210 208 206 204 203 201 198 197 196 195 195 191 189 194 193 190 191 190
213 211 226 261 248 246 253 259 293 332 317 285 292 278 268 272 272 272 270 267 269 259 255 258 223 151 148 138 117 112 89 73 45 36 39 39 42 45 48 49 45 42 40 35 31 29 30 30 20 354 326 315 314 323 324 253 236 235 233 227 222 221 212 200 206 219 225 228 230 232 234 235 238 241 247 242 231 225 218 211 211 209 206 202 200 199 195 194 195 194 190 187 190 194 194 193 190
202 219 221 254 264 252 244 245 255 283 299 271 267 270 269 273 275 270 267 258 254 255 255 250 172 145 148 133 123 119 100 85 62 48 45 45 44 44 47 50 51 48 46 41 36 31 29 28 24 17 2 342 319 318 326 217 218 214 209 209 206 206 210 198 198 218 234 248 253 253 252 250 248 243 241 240 235 232 225 216 214 211 209 203 200 201 198 197 197 193 190 187 184 186 190 191 189
248 267 263 257 265 266 256 259 253 220 264 260 246 259 261 261 270 270 267 261 253 254 250 236 192 165 163 142 134 126 113 103 76 56 46 48 48 48 48 49 52 51 49 46 44 40 36 35 32 32 27 16 0 352 9 192 212 210 203 202 197 189 189 185 175 194 232 272 292 291 283 274 271 257 240 238 238 235 229 224 223 217 212 206 203 206 203 200 198 192 188 186 183 181 180 185 186
258 257 268 266 260 268 262 250 252 219 231 253 245 266 266 256 262 263 261 256 249 244 238 237 206 172 166 150 144 134 121 104 74 52 41 42 43 47 47 47 47 46 44 45 46 44 42 42 41 39 36 35 34 28 26 7 236 221 207 195 186 173 158 152 141 125 178 287 308 311 308 296 289 279 253 241 237 236 233 230 232 229 218 208 204 207 205 200 197 193 189 182 180 181 180 182 184
247 247 265 268 263 280 269 239 237 213 215 256 261 272 272 259 254 256 252 241 238 238 241 246 204 174 170 162 152 137 125 98 69 49 39 36 36 41 43 42 44 45 45 45 46 46 44 43 43 44 44 45 47 46 48 35 357 214 195 178 167 150 122 106 102 88 68 334 322 319 320 314 301 291 273 254 240 236 236 234 233 231 224 212 207 207 204 201 197 194 192 184 179 180 180 182 185
237 242 254 263 266 282 271 248 241 231 235 272 281 281 274 264 258 255 248 232 217 63 46 18 153 165 160 151 138 130 129 105 77 55 37 33 33 35 36 36 40 45 46 44 45 46 46 45 46 48 49 53 56 58 63 60 67 106 130 132 128 118 104 96 92 73 50 21 355 341 335 333 325 311 294 273 253 241 239 238 233 226 220 214 211 207 202 200 198 193 190 185 178 174 174 179 184
236 231 235 256 259 246 251 278 312 280 258 260 286 291 276 251 248 254 257 121 107 72 73 61 65 113 120 113 112 112 118 112 94 73 42 35 33 31 33 36 40 45 46 45 48 51 51 51 52 52 52 56 60 64 70 74 88 99 104 107 105 97 87 81 76 59 43 29 13 5 357 349 343 335 323 298 270 253 246 243 238 227 217 213 212 209 203 199 199 195 191 189 184 179 176 178 183
256 229 225 245 254 248 254 294 335 304 280 234 218 279 278 243 241 251 274 104 181 93 105 126 117 124 127 121 120 112 104 101 92 78 59 44 36 33 34 36 39 42 45 49 54 60 61 59 58 58 58 59 60 67 74 78 84 88 90 88 81 72 64 60 63 60 52 43 32 23 16 10 5 1 355 342 312 274 256 243 240 235 225 217 212 210 206 200 198 196 195 195 194 193 189 180 183
272 227 211 230 238 244 254 279 305 273 274 252 163 226 274 297 270 241 205 200 217 213 171 179 174 160 152 140 133 128 116 104 90 75 63 51 42 37 34 34 37 39 44 53 59 64 67 65 62 61 61 62 63 69 78 84 85 84 84 82 78 75 70 64 67 72 72 65 57 48 40 36 32 30 28 23 22 10 297 230 228 227 225 223 218 212 209 205 200 196 199 200 194 194 193 185 184
262 208 179 201 217 239 248 253 253 242 281 272 186 196 269 283 270 209 187 212 223 222 221 205 189 178 156 143 137 128 121 109 99 84 68 57 49 44 39 37 40 44 51 56 58 63 68 68 67 67 66 66 69 74 81 87 90 89 87 83 79 79 80 77 75 78 82 81 75 68 61 57 53 50 47 44 46 50 59 102 189 200 204 214 218 214 209 208 205 200 201 203 196 190 193 191 187
251 199 169 184 202 229 228 222 250 282 330 277 210 170 253 272 266 187 184 223 234 225 223 213 191 178 158 143 134 119 111 102 98 92 80 68 59 54 50 47 48 53 57 59 62 66 71 71 70 71 70 68 70 77 84 88 92 93 91 86 82 81 83 84 84 82 83 85 80 73 69 68 66 63 60 55 52 53 59 66 78 118 142 158 175 178 185 194 204 205 203 204 200 192 193 197 195
242 161 135 50 88 203 158 191 249 13 295 266 229 159 238 269 261 225 197 234 243 234 222 207 180 169 162 145 134 123 112 101 94 91 84 75 70 66 63 60 57 58 61 66 70 72 73 73 72 72 70 69 71 76 84 88 92 93 90 88 86 84 85 86 87 83 80 81 78 71 68 68 68 68 67 66 62 58 61 66 69 77 87 94 105 108 114 131 153 182 200 203 197 186 187 193 198
165 91 58 13 9 6 356 221 116 17 269 262 221 174 217 273 268 195 193 226 232 222 200 181 171 170 168 152 141 133 121 114 104 95 89 82 78 74 71 67 61 61 64 68 72 73 73 73 75 74 71 71 73 76 81 85 89 90 88 88 88 86 85 84 81 77 75 76 73 68 66 66 66 66 67 68 68 67 68 70 72 73 80 88 92 94 95 98 106 107 100 181 184 173 178 185 197
130 89 60 358 324 4 1 341 82 227 258 261 186 179 205 244 255 191 218 260 236 209 194 184 180 175 167 155 144 135 124 120 112 104 99 89 80 74 70 67 63 62 64 65 69 73 74 74 76 76 72 72 74 76 79 82 85 86 87 88 88 86 84 81 76 72 71 70 67 64 64 63 64 64 65 65 63 65 68 70 73 74 73 78 83 90 98 103 111 112 94 77 86 117 140 164 181
131 117 102 247 294 349 322 295 137 230 259 268 197 184 209 243 258 243 244 273 291 265 240 198 182 170 160 150 139 134 124 120 116 110 106 94 85 78 73 70 65 64 63 65 68 72 74 75 76 75 71 72 76 77 79 81 82 82 84 85 86 85 83 80 76 73 71 69 66 63 60 58 57 58 58 59 59 61 63 64 66 67 66 66 72 83 94 106 120 127 125 116 100 89 96 118 143
156 152 159 190 222 272 256 259 263 254 270 279 241 186 234 268 280 262 249 277 305 301 292 178 160 150 145 138 131 125 118 117 115 111 107 100 96 90 83 78 72 69 68 68 69 71 73 74 75 75 72 74 78 78 78 79 80 81 82 83 83 83 82 79 77 73 71 70 68 65 62 58 57 56 55 56 61 64 64 66 67 66 65 65 66 72 76 86 105 123 139 146 150 151 145 146 157
195 178 157 182 177 193 233 234 236 254 275 281 248 152 211 249 260 263 279 317 340 2 69 103 115 124 127 125 125 125 119 117 114 110 109 104 101 96 89 83 77 74 73 72 71 72 73 72 73 73 72 73 77 79 79 78 78 80 81 82 83 82 82 81 78 75 73 72 70 67 65 63 61 60 59 59 63 68 67 68 70 68 67 67 66 67 66 67 72 83 99 121 142 162 189 198 203
243 140 116 210 187 175 233 234 218 250 294 279 242 203 218 194 198 280 10 20 39 54 83 104 115 127 130 131 133 130 124 120 119 115 112 106 101 96 90 85 82 79 76 75 73 73 74 73 72 73 71 71 74 77 79 79 79 79 79 80 81 82 82 80 78 76 75 75 73 70 67 66 65 63 63 63 64 67 67 67 68 68 68 68 68 67 64 60 59 66 70 69 69 74 130 183 219
129 124 179 230 172 153 235 263 251 256 270 264 249 254 263 268 266 287 58 64 85 101 119 123 132 138 136 140 137 133 131 126 123 120 114 109 101 94 90 87 84 83 79 77 76 76 77 76 74 74 72 71 71 72 75 77 79 79 78 78 79 79 79 78 76 75 74 74 73 71 68 66 66 64 62 63 63 64 66 66 66 65 66 68 69 71 70 67 64 65 63 59 55 51 61 84 283
129 206 219 239 39 129 212 262 269 255 252 248 242 256 267 265 259 326 12 228 188 180 161 143 152 153 148 147 139 135 133 127 124 121 113 106 102 94 91 89 86 86 84 81 81 80 80 78 76 75 73 70 70 70 71 72 75 75 75 76 78 78 77 76 76 74 72 71 69 67 66 63 62 62 61 60 60 61 61 62 63 63 62 64 67 69 73 74 73 72 68 62 59 56 55 48 25
162 218 216 118 267 261 220 230 246 249 258 261 246 252 261 254 234 162 218 227 207 191 178 171 176 170 158 148 142 139 134 133 133 128 123 113 107 101 97 95 91 88 87 86 85 83 82 80 78 78 76 75 74 72 72 72 72 73 73 74 75 76 76 76 76 75 72 69 65 63 63 62 60 59 59 57 56 55 56 56 58 59 59 59 61 64 66 69 69 68 67 65 65 68 70 59 45
83 266 270 139 194 216 215 235 241 241 259 268 256 251 256 253 210 177 208 219 197 183 187 191 186 175 164 152 147 147 144 145 144 136 133 122 114 109 104 100 96 93 90 88 87 85 82 81 79 79 79 80 79 77 76 74 73 75 75 75 73 73 74 75 75 74 71 68 65 63 61 61 60 57 55 55 53 51 51 51 52 53 54 53 53 55 57 59 61 59 58 57 57 62 62 56 50
270 265 262 245 236 275 285 261 248 243 259 270 266 256 258 263 189 183 213 219 191 184 189 192 185 174 167 157 152 153 149 148 146 141 136 126 119 114 109 104 100 96 93 89 87 84 82 80 79 80 79 78 79 78 77 77 75 76 75 74 73 72 72 74 74 71 69 67 64 62 60 58 59 57 54 52 51 49 48 46 47 47 49 48 46 46 47 49 51 51 50 49 48 50 49 45 40
199 223 239 239 237 267 281 264 242 225 245 259 265 267 266 274 52 210 256 262 214 197 191 184 178 173 162 152 152 151 148 147 145 140 136 130 126 121 115 109 103 98 93 89 87 84 83 81 79 81 80 78 78 79 79 79 78 76 74 73 72 71 70 70 69 67 64 63 61 59 57 55 54 52 52 50 49 48 47 45 44 44 44 44 42 39 38 40 42 42 43 43 42 41 39 37 34